Home   Weather   Guelph   Past weeks
Flag for Canada

Past Weather in Guelph, Ontario, Canada — Yesterday and Last 2 Weeks

Now
50 °F

Mostly cloudy.


Feels Like: 46 °F
Forecast: 52 / 43 °F
Wind: 9 mph from East

Location: Waterloo Well

Current Time: Oct 16, 2019 at 1:31:34 am

Latest Report: Oct 16, 2019 at 12:00 am


Visibility: 9 mi

Pressure: 29.77 "Hg

Humidity: 82%

Dew Point: 45 °F

Location of GuelphLocation

Past Weather in Guelph — Graph

°F

Guelph Temperature Yesterday

Maximum temperature yesterday: 59 °F (at 3:00 pm)
Minimum temperature yesterday: 30 °F (at 6:02 am)
Average temperature yesterday: 47 °F

High & Low Weather Summary for the Past Weeks

 TemperatureHumidityPressure
High84 °F (Oct 1, 1:00 pm)100% (Oct 1, 12:31 am)30.45 "Hg (Oct 1, 12:31 am)
Low28 °F (Oct 13, 1:40 am)39% (Oct 7, 4:00 pm)29.77 "Hg (Oct 16, 12:00 am)
Average51 °F86%30.09 "Hg
* Reported Oct 1 12:00 am — Oct 16 12:00 am, Guelph. Weather by CustomWeather, © 2019

Note: Actual official high and low records may vary slightly from our data, if they occured in-between our weather recording intervals... More about our weather records

Advertising

Guelph Weather History for the Previous 24 Hours

Scroll right to see more
 ConditionsComfort  
Time TempWeatherWind HumidityBarometerVisibility
12:00 am
Wed, Oct 16
50 °FMostly cloudy.9 mph82%29.77 "Hg9 mi
11:00 pm
Tue, Oct 15
50 °FOvercast.14 mph82%29.82 "Hg9 mi
10:00 pm50 °FPassing clouds.12 mph82%29.87 "Hg9 mi
9:00 pm50 °FMostly cloudy.6 mph82%29.90 "Hg9 mi
8:00 pm52 °FOvercast.7 mph67%29.94 "Hg9 mi
7:00 pm52 °FMostly cloudy.7 mph67%29.94 "Hg9 mi
6:00 pm54 °FMostly cloudy.9 mph63%29.95 "Hg9 mi
5:00 pm57 °FPartly sunny.9 mph55%29.95 "Hg9 mi
4:00 pm59 °FSunny.7 mph55%29.96 "Hg9 mi
3:00 pm59 °FScattered clouds.15 mph55%29.99 "Hg9 mi
2:00 pm57 °FScattered clouds.15 mph59%30.02 "Hg9 mi
1:00 pm55 °FScattered clouds.14 mph59%30.03 "Hg9 mi
12:00 pm54 °FPassing clouds.10 mph63%30.07 "Hg9 mi
11:00 am50 °FSunny.8 mph62%30.11 "Hg9 mi
6:29 am32 °FIce fog.No wind93%30.14 "Hg5 mi
6:12 am32 °FClear.3 mph100%30.14 "Hg9 mi
6:02 am30 °FIce fog.2 mph100%30.14 "Hg5 mi
5:33 am32 °FIce fog.No wind100%30.13 "Hg4 mi
4:00 am34 °FClear.2 mph93%30.12 "Hg9 mi
3:00 am37 °FClear.No wind93%30.11 "Hg9 mi
2:00 am41 °FPassing clouds.3 mph81%30.11 "Hg9 mi
1:00 am43 °FOvercast.7 mph76%30.10 "Hg9 mi
Weather by CustomWeather, © 2019

See weather overview